[[{"header":{"parameterUnit":"m.s-1","parameterCategory":1,"la1":30.2991,"la2":30.254,"lo1":-89.0895,"lo2":-89.0444,"dy":0.0017,"dx":0.0017,"nx":28,"ny":28,"refTime":"2025-08-07T21:00:00:Z","depth":0,"parameterNumber":2,"parameterNumberName":"U-component_of_WINDS"},"data":[0,0,0,0,0,0,0,0,0,0,0,0,0,0,0,0,0,0,0,0,0,0,0,0,0,0,0,0,0,0,0,0,0,0,0,0,0,0,0,0,0,0,0,0,0,0,0,0,0,0,0,0,0,0,0,0,0,0,-4.5483,-4.5483,0,-4.5466,-4.5465,-4.5465,-4.5339,-4.5336,-4.5333,-4.533,-4.5314,-4.5316,-4.5319,0,0,0,0,0,0,0,0,0,0,0,0,0,-4.541,-4.5412,-4.5483,-4.5483,-4.5483,-4.5466,-4.5465,-4.5465,-4.534,-4.5336,-4.5332,-4.5329,-4.5313,-4.5316,-4.5319,0,0,0,0,0,0,0,0,0,0,0,0,0,-4.5422,-4.5413,-4.5483,-4.5418,-4.5412,-4.5466,-4.5465,-4.5465,-4.5341,-4.5336,-4.5331,-4.5327,-4.5312,-4.5316,-4.5319,-4.5434,0,0,-4.533,-4.5332,0,0,0,0,0,0,0,0,-4.5422,-4.5425,-4.5428,-4.5423,-4.5416,-4.54,-4.5433,-4.5455,-4.5342,-4.5368,-4.533,-4.5325,-4.5346,-4.5347,-4.5354,-4.5433,-4.5433,-4.5331,-4.5333,-4.5334,-4.5335,0,0,0,0,0,0,0,-4.5421,-4.5425,-4.5476,-4.5428,-4.5421,-4.539,-4.5387,-4.5437,-4.5383,-4.5365,-4.5356,-4.5356,-4.5342,-4.535,-4.5352,-4.5432,-4.5331,-4.5334,-4.5336,-4.5337,-4.5607,-4.5612,0,0,0,0,0,0,-4.5429,-4.5425,-4.5477,-4.5476,-4.5408,-4.5396,-4.5392,-4.541,-4.5382,-4.5374,-4.536,-4.535,-4.5347,-4.5348,-4.5351,-4.5485,-4.5334,-4.5338,-4.534,-4.5602,-4.5608,-4.5613,0,0,0,0,0,0,-4.5428,-4.5435,-4.5477,-4.5448,-4.5451,-4.5402,-4.5423,-4.5412,-4.542,-4.5378,-4.5368,-4.5378,-4.5343,-4.5346,-4.5415,-4.5483,-4.5339,-4.5343,-4.5596,-4.5604,-4.5611,-4.5753,0,0,0,0,0,0,-4.5426,-4.5435,-4.5478,-4.545,-4.5453,-4.5541,-4.5427,-4.5415,-4.5427,-4.5414,-4.5393,-4.5385,-4.534,-4.541,-4.5418,-4.5485,-4.5346,-4.559,-4.56,-4.5608,-4.5742,-4.5765,-4.5784,0,0,0,0,0,-4.5424,-4.5519,-4.5481,-4.5488,-4.5505,-4.5545,-4.5547,-4.5493,-4.5432,-4.5475,-4.5449,-4.5385,-4.5474,-4.5418,-4.5426,-4.5495,-4.5585,-4.5597,-4.5608,-4.5733,-4.576,-4.5783,0,0,0,0,0,0,-4.5556,-4.5514,-4.5471,-4.5559,-4.5557,-4.5524,-4.5576,-4.5523,-4.5538,-4.5525,-4.5458,-4.5454,-4.5533,-4.5521,-4.5459,-4.5606,-4.5519,-4.5532,-4.5611,-4.5637,-4.5657,-4.5659,-4.5349,0,0,0,0,0,-4.5596,-4.5631,-4.5592,-4.5674,-4.5675,-4.5626,-4.5641,-4.56,-4.5595,-4.5593,-4.5571,-4.5569,-4.5596,-4.5616,-4.5638,-4.574,-4.5734,-4.5791,-4.5812,-4.583,-4.5842,-4.5896,-4.5922,-4.565,-4.565,-4.565,0,0,-4.5677,-4.5659,-4.5685,-4.57,-4.5693,-4.5732,-4.5626,-4.5671,-4.57,-4.56,-4.5663,-4.5648,-4.5641,-4.5727,-4.5764,-4.5719,-4.5916,-4.5844,-4.5858,-4.5861,-4.591,-4.5936,-4.5959,-4.5658,-4.5656,-4.5655,0,0,-4.5846,-4.5835,-4.5902,-4.5898,-4.5889,-4.5856,-4.5873,-4.5848,-4.5834,-4.5896,-4.5823,-4.5856,-4.5904,-4.5902,-4.5908,-4.6078,-4.6021,-4.6087,-4.6196,-4.625,-4.6271,-4.629,-4.6352,-4.6374,-4.61,-4.61,-4.61,0,-4.5949,-4.6004,-4.5944,-4.5994,-4.6004,-4.5915,-4.5983,-4.5982,-4.5981,-4.599,-4.594,-4.5999,-4.5988,-4.6073,-4.6115,-4.6122,-4.614,-4.609,-4.6273,-4.6291,-4.6307,-4.6366,-4.6389,-4.6108,-4.6107,-4.6107,-4.6106,0,-4.6131,-4.6171,-4.6227,-4.6228,-4.6244,-4.6303,-4.6252,-4.6275,-4.6233,-4.6206,-4.6272,-4.6256,-4.6274,-4.6291,-4.625,-4.6371,-4.6344,-4.6285,-4.6196,-4.6343,-4.6396,-4.6418,-4.612,-4.6117,-4.6115,-4.6113,0,0,-4.6383,-4.6351,-4.6372,-4.6373,-4.6357,-4.6386,-4.6442,-4.646,-4.6482,-4.6485,-4.653,-4.6574,-4.6519,-4.6526,-4.6484,-4.6531,-4.6668,-4.6465,-4.6464,-4.6505,-4.6802,-4.6848,-4.6874,-4.663,-4.6634,-4.6637,-4.6803,0,-4.6546,-4.6639,-4.6587,-4.6687,-4.6724,-4.6641,-4.669,-4.6686,-4.6662,-4.669,-4.6664,-4.6697,-4.6621,-4.6625,-4.6668,-4.6642,-4.6727,-4.6629,-4.6673,-4.6675,-4.6678,-4.6902,-4.695,-4.7107,-4.6823,-4.6827,-4.6829,0,-4.6748,-4.676,-4.6865,-4.6843,-4.6856,-4.6901,-4.6914,-4.6941,-4.6936,-4.6915,-4.6924,-4.6871,-4.6925,-4.6837,-4.6911,-4.6846,-4.6861,-4.6852,-4.6856,-4.6859,-4.6762,-4.6912,-4.7156,-4.718,-4.6861,-4.6859,-4.6857,0,-4.6922,-4.6964,-4.7032,-4.7035,-4.7011,-4.7045,-4.7037,-4.7026,-4.7041,-4.7052,-4.7061,-4.7079,-4.709,-4.7105,-4.7059,-4.6999,-4.714,-4.7048,-4.7126,-4.7127,-4.716,-4.7159,-4.7411,-4.7168,-4.7168,-4.7168,-4.7167,0,-4.711,-4.7178,-4.711,-4.7153,-4.7226,-4.7166,-4.7241,-4.7224,-4.7216,-4.7254,-4.7183,-4.722,-4.7156,-4.7188,-4.7152,-4.722,-4.7225,-4.7211,-4.7201,-4.7218,-4.722,-4.7227,-4.7215,-4.7174,-4.7172,-4.7171,-4.717,0,-4.7317,-4.7275,-4.7344,-4.7316,-4.7311,-4.7366,-4.7343,-4.7381,-4.7353,-4.7402,-4.741,-4.7367,-4.74,-4.7355,-4.7384,-4.736,-4.7453,-4.7426,-4.7455,-4.7448,-4.7529,-4.7522,-4.7795,-4.7829,-4.7564,-4.7567,-4.7569,0,-4.744,-4.749,-4.7468,-4.7488,-4.7484,-4.7518,-4.7533,-4.7476,-4.7494,-4.7492,-4.7531,-4.7559,-4.7577,-4.7635,-4.7606,-4.7628,-4.7602,-4.7696,-4.7605,-4.7621,-4.7605,-4.7603,-4.7608,-4.7715,-4.7718,-4.7721,-4.7723,0,-4.7664,-4.764,-4.7664,-4.7681,-4.7701,-4.7712,-4.7717,-4.7738,-4.7678,-4.7703,-4.7736,-4.7751,-4.778,-4.7809,-4.7824,-4.7816,-4.7761,-4.7752,-4.7771,-4.7789,-4.7805,-4.7799,-4.7507,-4.7746,-4.7744,-4.7742,-4.7741,-4.774,-4.7833,-4.7874,-4.7865,-4.7894,-4.7893,-4.79,-4.7935,-4.7912,-4.7938,-4.7958,-4.7923,-4.7965,-4.7959,-4.7973,-4.7972,-4.8005,-4.7964,-4.7992,-4.7999,-4.8007,-4.802,-4.7799,-4.8007,-4.8006,-4.8006,-4.8005,-4.8005,0,-4.8053,-4.8044,-4.8071,-4.8082,-4.8105,-4.805,-4.8054,-4.8077,-4.8116,-4.8115,-4.8135,-4.8174,-4.8202,-4.8176,-4.8198,-4.823,-4.8205,-4.8238,-4.8235,-4.8235,-4.8055,-4.8036,-4.8258,-4.8258,-4.8258,-4.8257,-4.8257,-4.8257,-4.8171,-4.8238,-4.8214,-4.8281,-4.827,-4.8311,-4.8318,-4.8325,-4.8324,-4.8371,-4.8393,-4.8376,-4.8366,-4.8387,-4.8411,-4.8402,-4.8414,-4.8457,-4.844,-4.8272,-4.8247,-4.8224,-4.8206,-4.8459,-4.846,-4.8617,-4.8618,-4.8619]},{"header":{"parameterUnit":"m.s-1","parameterCategory":1,"la1":30.2991,"la2":30.254,"lo1":-89.0895,"lo2":-89.0444,"dy":0.0017,"dx":0.0017,"nx":28,"ny":28,"refTime":"2025-08-07T21:00:00:Z","depth":0,"parameterNumber":3,"parameterNumberName":"V-component_of_WINDS"},"data":[0,0,0,0,0,0,0,0,0,0,0,0,0,0,0,0,0,0,0,0,0,0,0,0,0,0,0,0,0,0,0,0,0,0,0,0,0,0,0,0,0,0,0,0,0,0,0,0,0,0,0,0,0,0,0,0,0,0,-0.6444,-0.6443,0,-0.64,-0.64,-0.6399,-0.6328,-0.6327,-0.6326,-0.6325,-0.6282,-0.6282,-0.6282,0,0,0,0,0,0,0,0,0,0,0,0,0,-0.6467,-0.6467,-0.6444,-0.6443,-0.6443,-0.64,-0.64,-0.6399,-0.6329,-0.6327,-0.6326,-0.6324,-0.6282,-0.6282,-0.6282,0,0,0,0,0,0,0,0,0,0,0,0,0,-0.6443,-0.6466,-0.6444,-0.6402,-0.6398,-0.64,-0.64,-0.6399,-0.6329,-0.6327,-0.6325,-0.6323,-0.6282,-0.6282,-0.6282,-0.6321,0,0,-0.6282,-0.6282,0,0,0,0,0,0,0,0,-0.6445,-0.6443,-0.6409,-0.6405,-0.6401,-0.6368,-0.6392,-0.6373,-0.633,-0.6355,-0.6325,-0.6322,-0.6312,-0.6309,-0.6306,-0.6319,-0.6318,-0.6282,-0.6282,-0.6282,-0.6282,0,0,0,0,0,0,0,-0.6446,-0.6444,-0.6426,-0.6409,-0.6403,-0.6386,-0.6381,-0.6388,-0.6345,-0.6353,-0.6348,-0.6343,-0.6309,-0.6306,-0.6304,-0.6317,-0.6282,-0.6282,-0.6282,-0.6282,-0.636,-0.6362,0,0,0,0,0,0,-0.6454,-0.6446,-0.6428,-0.6425,-0.6418,-0.6387,-0.6381,-0.638,-0.6345,-0.6338,-0.6345,-0.634,-0.6307,-0.6304,-0.6302,-0.6346,-0.6282,-0.6282,-0.6282,-0.6358,-0.6361,-0.6363,0,0,0,0,0,0,-0.6455,-0.6453,-0.643,-0.6434,-0.643,-0.6389,-0.6389,-0.638,-0.6377,-0.6339,-0.6331,-0.6349,-0.6305,-0.6302,-0.6317,-0.6343,-0.6282,-0.6282,-0.6356,-0.6359,-0.6362,-0.6434,0,0,0,0,0,0,-0.6456,-0.6454,-0.6468,-0.6435,-0.643,-0.6445,-0.639,-0.6381,-0.6377,-0.637,-0.6341,-0.6334,-0.6303,-0.6317,-0.6317,-0.6342,-0.6283,-0.6353,-0.6357,-0.6361,-0.6429,-0.6439,-0.6447,0,0,0,0,0,-0.6457,-0.6491,-0.6469,-0.6468,-0.6447,-0.6447,-0.6444,-0.6407,-0.6379,-0.6394,-0.6369,-0.6335,-0.634,-0.6319,-0.6319,-0.6344,-0.6351,-0.6356,-0.636,-0.6425,-0.6437,-0.6447,0,0,0,0,0,0,-0.6529,-0.6486,-0.6462,-0.6486,-0.647,-0.6435,-0.6452,-0.6421,-0.6414,-0.6408,-0.6363,-0.6357,-0.6378,-0.6362,-0.6339,-0.638,-0.6341,-0.6345,-0.639,-0.6401,-0.641,-0.6413,-0.6283,0,0,0,0,0,-0.6548,-0.6551,-0.6513,-0.6538,-0.6531,-0.6493,-0.6492,-0.6464,-0.6447,-0.644,-0.6417,-0.6402,-0.6399,-0.6399,-0.6396,-0.6426,-0.6418,-0.6443,-0.6453,-0.6461,-0.6465,-0.648,-0.649,-0.6378,-0.6378,-0.6377,0,0,-0.6587,-0.6563,-0.6568,-0.6552,-0.6537,-0.6541,-0.6488,-0.6495,-0.6498,-0.6441,-0.6454,-0.6436,-0.6416,-0.6438,-0.6447,-0.6426,-0.6494,-0.6466,-0.6473,-0.6473,-0.6485,-0.6496,-0.6505,-0.6381,-0.638,-0.638,0,0,-0.666,-0.6642,-0.6661,-0.6647,-0.6624,-0.6598,-0.6603,-0.6572,-0.6558,-0.6569,-0.6526,-0.6529,-0.6527,-0.6514,-0.6507,-0.6574,-0.6543,-0.6574,-0.6623,-0.6638,-0.6647,-0.6654,-0.6678,-0.6687,-0.6579,-0.6579,-0.6579,0,-0.6711,-0.6715,-0.6675,-0.6684,-0.6678,-0.6626,-0.6645,-0.6633,-0.6611,-0.6608,-0.6585,-0.658,-0.6563,-0.6582,-0.6598,-0.6594,-0.6598,-0.6578,-0.6649,-0.6656,-0.6662,-0.6684,-0.6693,-0.6583,-0.6583,-0.6582,-0.6582,0,-0.6779,-0.6783,-0.6801,-0.678,-0.6776,-0.679,-0.6751,-0.6752,-0.6725,-0.6702,-0.6714,-0.6691,-0.6682,-0.6684,-0.6658,-0.6699,-0.6686,-0.6657,-0.6616,-0.6678,-0.6698,-0.6706,-0.6589,-0.6588,-0.6586,-0.6585,0,0,-0.6897,-0.6853,-0.686,-0.685,-0.6821,-0.6823,-0.6834,-0.6824,-0.6826,-0.6812,-0.682,-0.6819,-0.6791,-0.6783,-0.6755,-0.6768,-0.6822,-0.6736,-0.6735,-0.6753,-0.6865,-0.6888,-0.6899,-0.6801,-0.6802,-0.6803,-0.6867,0,-0.6964,-0.6981,-0.6944,-0.697,-0.6973,-0.6923,-0.6933,-0.6917,-0.6895,-0.6894,-0.687,-0.687,-0.6833,-0.6828,-0.6838,-0.6814,-0.6844,-0.6809,-0.6808,-0.6809,-0.6815,-0.6909,-0.6933,-0.6994,-0.6875,-0.6876,-0.6877,0,-0.7045,-0.7034,-0.706,-0.7029,-0.7028,-0.7038,-0.7025,-0.7025,-0.7005,-0.6989,-0.698,-0.6947,-0.6956,-0.6916,-0.6928,-0.6904,-0.6902,-0.689,-0.6891,-0.689,-0.6847,-0.691,-0.7013,-0.7022,-0.6889,-0.6888,-0.6887,0,-0.7128,-0.712,-0.7134,-0.7127,-0.7091,-0.7099,-0.7084,-0.7062,-0.7058,-0.7047,-0.7044,-0.7035,-0.703,-0.7024,-0.6989,-0.6963,-0.7005,-0.6962,-0.6991,-0.6992,-0.7002,-0.7002,-0.7106,-0.7001,-0.7001,-0.7001,-0.7,0,-0.7206,-0.7224,-0.7171,-0.718,-0.7198,-0.7156,-0.7175,-0.7156,-0.7137,-0.7141,-0.7098,-0.7102,-0.7056,-0.7056,-0.7029,-0.7043,-0.7041,-0.7027,-0.702,-0.7031,-0.7033,-0.7029,-0.7024,-0.7003,-0.7002,-0.7002,-0.7002,0,-0.7302,-0.7268,-0.728,-0.7244,-0.7236,-0.7251,-0.7221,-0.7227,-0.7203,-0.7209,-0.7207,-0.7169,-0.7166,-0.7131,-0.7121,-0.7103,-0.7127,-0.7112,-0.7134,-0.7129,-0.7159,-0.7157,-0.7265,-0.7276,-0.7164,-0.7165,-0.7166,0,-0.7355,-0.7367,-0.7333,-0.7332,-0.732,-0.7319,-0.7315,-0.7273,-0.7271,-0.7248,-0.7258,-0.7252,-0.7244,-0.7243,-0.7214,-0.7206,-0.719,-0.7228,-0.7189,-0.7199,-0.719,-0.719,-0.7191,-0.7237,-0.7238,-0.7239,-0.724,0,-0.7451,-0.7433,-0.7428,-0.7417,-0.7413,-0.7403,-0.7389,-0.7391,-0.7346,-0.7345,-0.7341,-0.7336,-0.7325,-0.732,-0.7306,-0.7291,-0.7258,-0.7253,-0.7259,-0.7271,-0.7283,-0.7276,-0.7157,-0.7251,-0.725,-0.7249,-0.7248,-0.7248,-0.7527,-0.7535,-0.7512,-0.7508,-0.7493,-0.7482,-0.7486,-0.7462,-0.7458,-0.7446,-0.7422,-0.7422,-0.7401,-0.7379,-0.7367,-0.7367,-0.7347,-0.7356,-0.7358,-0.7361,-0.7367,-0.7283,-0.7364,-0.7364,-0.7364,-0.7363,-0.7363,0,-0.7621,-0.7603,-0.76,-0.7582,-0.7579,-0.7548,-0.7531,-0.7531,-0.7531,-0.7514,-0.7508,-0.7504,-0.7498,-0.7468,-0.7459,-0.7464,-0.7449,-0.7463,-0.7463,-0.746,-0.7386,-0.7381,-0.7476,-0.7476,-0.7476,-0.7476,-0.7476,-0.7476,-0.7669,-0.7682,-0.7661,-0.7666,-0.7648,-0.7648,-0.7641,-0.763,-0.7616,-0.7613,-0.7608,-0.7589,-0.7566,-0.7555,-0.7548,-0.754,-0.7538,-0.7558,-0.7544,-0.7476,-0.7465,-0.7455,-0.745,-0.7558,-0.7558,-0.7618,-0.7619,-0.7619]}]]